Theta_e
316 311 310 309 298 294 289 291 296 297 297 300 302 304 303 305 304 296 324 330 332 334 343 345 348 349 346 345 344 344 343 341 341 342 342 343 343 345 345 342 342 338 337 336 338 338 338 339 340
313 314 310 301 293 286 288 292 295 297 299 302 303 302 304 307 315 321 323 332 333 338 344 344 346 349 347 345 345 344 343 340 340 340 342 342 343 345 344 342 340 337 336 336 338 338 338 337 339
315 311 303 297 290 287 289 292 297 297 298 298 299 304 306 310 319 322 327 334 334 339 343 344 346 348 347 345 344 344 342 340 339 339 340 342 343 345 342 340 337 336 335 335 337 337 336 337 336
307 304 299 292 289 291 292 296 298 297 297 300 301 303 310 316 325 328 333 336 335 339 343 342 346 348 347 345 343 341 339 338 337 337 338 340 342 342 340 339 336 335 333 334 336 336 338 337 336
304 299 293 290 289 294 293 298 298 296 296 297 301 300 307 321 326 331 335 336 334 337 340 343 345 346 347 345 342 341 339 337 336 335 337 339 340 340 338 336 335 333 332 333 335 333 335 337 337
299 296 290 287 289 292 293 299 299 296 296 297 300 304 308 319 329 331 335 334 336 337 340 342 339 341 344 344 343 342 340 337 336 334 336 336 337 338 335 335 333 332 331 331 333 332 333 334 333
297 293 289 289 290 292 295 297 297 296 297 298 301 302 307 316 327 330 333 335 337 338 340 341 341 340 338 340 340 340 340 338 336 336 336 336 336 336 334 332 331 330 330 331 331 332 332 332 331
299 295 291 292 290 291 295 296 298 297 297 300 303 302 304 314 324 329 333 336 337 339 339 339 339 339 339 338 334 335 336 336 335 334 332 331 332 332 331 329 330 329 329 330 329 331 331 330 329
298 291 288 290 290 293 295 294 296 298 299 298 301 304 307 317 324 327 326 334 335 338 339 339 338 338 337 337 333 331 332 332 330 328 326 323 323 323 321 324 328 329 329 329 328 329 327 325 324
294 290 291 293 292 293 295 295 297 295 295 296 299 306 311 318 322 324 322 324 327 331 335 338 337 337 336 338 334 333 332 330 326 323 320 320 319 319 320 320 325 327 327 328 325 325 321 316 312
294 291 294 294 295 296 297 294 296 295 292 297 299 306 312 316 318 324 322 322 328 329 333 335 337 336 336 337 336 335 331 328 324 320 319 318 317 317 316 315 316 318 318 317 314 312 311 310 310
293 295 295 297 297 296 295 296 294 295 296 299 300 309 313 316 317 321 323 319 324 326 330 332 335 335 336 337 335 335 333 328 324 320 320 317 314 313 312 313 312 313 312 311 309 308 308 308 308
293 293 295 297 296 295 297 294 294 295 298 297 299 308 312 315 316 317 321 320 320 327 329 330 333 334 336 336 336 336 334 329 325 321 323 318 315 312 311 310 311 309 308 308 307 306 306 305 305
295 295 294 295 295 295 293 291 293 295 296 297 300 302 310 313 313 312 314 319 319 327 329 330 332 334 336 336 336 336 335 332 326 322 324 318 316 313 312 310 310 309 309 308 307 304 304 302 302
296 291 292 293 295 294 294 290 293 294 296 296 296 298 301 309 311 313 316 319 321 322 328 329 331 333 334 335 335 335 335 333 328 325 325 320 318 314 312 312 312 312 313 311 308 305 303 301 300
291 289 284 289 294 294 291 286 291 294 293 294 294 293 296 300 308 313 314 317 319 320 322 328 331 331 332 333 334 334 335 334 332 328 327 323 319 316 315 313 313 314 313 310 305 302 298 297 298
288 281 285 288 294 294 291 287 293 294 293 294 293 294 294 296 298 302 309 314 316 319 321 324 328 329 330 332 333 333 333 333 333 333 328 326 321 319 317 315 315 315 312 308 303 299 299 295 293
283 283 285 284 291 291 289 290 293 295 292 294 294 294 294 295 297 301 300 307 313 315 319 323 327 329 330 332 332 332 332 334 334 333 331 327 325 322 319 317 316 314 310 305 301 298 295 292 293
286 286 285 286 292 291 290 290 292 293 292 292 291 292 293 295 300 298 299 300 302 310 313 320 324 328 330 328 328 327 329 331 332 333 332 329 327 324 321 317 315 315 308 303 300 296 293 292 291
286 284 284 288 291 289 288 288 291 292 293 295 294 292 292 293 294 297 298 298 298 305 312 318 323 327 329 330 331 330 330 321 327 331 331 329 328 325 322 318 315 315 309 303 298 296 293 291 291
286 285 285 287 287 287 286 284 287 290 291 293 294 294 294 293 294 295 296 296 297 299 307 315 321 325 328 329 322 314 314 313 314 323 327 328 328 325 323 320 317 314 312 303 299 297 295 291 290
285 290 289 288 284 280 285 278 283 288 290 290 293 292 292 293 294 295 296 295 296 298 302 312 318 322 325 324 322 321 321 320 321 321 322 317 326 325 323 320 317 315 312 305 301 297 298 295 289
288 291 288 287 284 282 281 280 283 285 287 290 291 291 292 293 293 294 295 296 297 297 299 307 313 317 318 322 321 320 321 318 308 309 311 311 312 316 321 320 317 315 313 308 303 300 298 296 294
292 289 287 285 282 277 281 281 279 283 287 288 291 291 294 296 297 297 297 297 300 297 298 305 310 313 314 319 316 317 318 307 306 304 307 309 310 309 310 312 316 315 313 309 305 302 300 298 297
288 284 277 276 275 276 280 279 281 287 289 290 290 292 293 295 295 295 296 296 297 298 298 301 306 306 308 312 310 312 312 308 308 306 306 301 306 305 309 308 310 313 312 311 306 303 300 300 297
286 285 278 271 274 276 280 278 284 289 289 291 291 290 292 293 295 295 296 296 295 297 298 299 300 302 304 306 306 306 307 308 307 305 303 305 304 304 304 307 310 310 310 309 306 304 302 301 299
286 282 285 280 270 274 279 282 288 289 291 290 291 292 293 294 295 295 296 296 295 295 297 299 299 299 300 302 303 303 304 304 304 303 303 302 302 301 299 303 305 307 307 307 306 303 301 300 299
287 289 281 279 270 269 277 278 281 285 289 292 293 292 293 294 295 296 296 296 296 296 297 298 298 299 300 300 301 302 303 303 303 302 301 300 299 298 296 301 302 303 303 304 304 303 301 300 299
285 284 284 284 279 274 271 278 285 288 289 292 292 293 294 294 295 296 295 295 295 296 297 297 298 298 299 299 299 300 301 301 301 301 300 299 298 296 295 295 298 300 300 300 301 302 300 298 298
287 287 287 281 278 279 279 281 290 291 292 293 293 294 294 294 294 294 295 295 295 295 295 297 297 297 298 299 298 298 299 299 299 299 299 298 296 294 294 292 291 292 296 298 298 299 299 297 295
Wind_Speed
5 4 4 6 5 6 1 1 3 2 3 1 1 8 8 3 2 4 3 9 12 11 8 9 11 14 15 15 13 12 12 14 13 14 14 15 15 15 19 19 17 18 18 17 18 19 19 19 17
3 4 6 3 6 5 4 2 6 2 5 5 6 4 5 1 2 5 8 7 14 12 9 9 11 15 14 14 12 11 13 13 13 13 13 14 14 16 18 19 16 17 17 17 18 18 18 19 19
3 4 5 5 4 5 5 4 6 3 3 2 4 5 4 4 3 9 3 12 13 10 9 10 13 15 15 15 13 13 13 13 13 13 12 14 13 17 19 17 16 16 16 16 18 17 15 18 18
2 5 5 6 3 1 7 7 5 5 2 4 4 6 2 3 9 8 15 15 12 10 9 11 13 15 15 14 14 14 13 13 13 13 12 13 14 17 16 16 15 15 15 16 16 17 17 17 18
4 3 5 3 2 0 1 5 7 5 4 3 3 4 2 4 1 13 15 14 13 9 9 10 13 14 15 15 15 14 13 13 13 13 13 13 14 16 15 14 15 15 15 15 16 16 15 16 17
5 4 5 2 3 1 2 7 8 4 3 3 6 5 4 3 8 10 14 13 13 12 11 10 11 12 13 15 14 14 13 13 13 13 13 13 13 14 14 14 15 15 15 15 16 16 16 17 18
7 5 4 4 2 2 4 6 7 7 6 4 10 6 2 3 5 8 11 11 11 11 11 9 10 11 12 12 13 13 13 13 12 12 12 11 11 13 14 14 15 15 15 16 16 16 19 19 19
6 5 3 2 2 3 2 1 7 6 7 2 6 6 5 7 7 7 8 11 11 11 10 10 8 9 9 9 12 12 12 12 11 11 10 10 11 12 11 10 13 15 15 16 15 17 18 18 18
3 6 2 2 3 4 3 2 2 1 5 2 1 7 5 11 8 7 4 6 9 12 13 11 11 8 7 7 7 10 11 12 11 10 11 9 5 6 7 8 12 15 15 16 16 16 17 17 16
6 4 7 2 2 4 1 2 6 4 2 1 2 2 4 10 7 10 8 8 7 9 11 13 11 10 9 7 7 5 6 5 5 5 6 4 5 5 6 7 11 12 12 15 16 15 14 9 4
3 6 5 2 1 3 5 1 2 8 4 7 10 7 8 6 9 11 8 9 12 8 9 13 13 12 11 8 6 5 4 4 4 6 5 5 4 4 4 3 3 4 6 3 6 6 4 6 5
4 3 2 3 2 2 3 0 3 6 8 5 10 11 10 13 14 15 13 10 10 10 11 13 15 14 12 9 9 8 7 5 5 5 6 5 3 4 4 4 5 4 3 5 4 4 5 6 6
4 1 4 2 1 2 1 3 4 7 9 4 4 9 14 15 15 10 11 7 7 12 11 13 14 14 13 11 9 9 9 8 7 7 6 6 6 4 4 4 4 4 4 4 4 5 5 6 6
4 3 4 4 3 1 1 1 1 8 6 8 7 12 14 14 17 6 7 12 10 12 14 13 13 13 14 12 12 10 9 10 8 8 8 8 7 7 5 4 5 5 4 4 5 5 6 5 5
4 1 4 5 5 3 2 6 10 5 5 5 9 9 10 13 8 15 17 16 15 11 12 14 14 12 13 13 12 10 10 11 10 9 10 11 9 9 9 7 5 6 5 8 6 5 5 6 4
4 5 2 3 6 2 4 9 4 5 5 10 7 7 8 11 15 16 12 13 11 10 12 14 13 14 14 12 11 9 9 10 10 10 10 12 12 13 10 8 8 6 7 7 7 7 4 4 4
5 3 4 6 7 4 5 6 6 1 3 6 7 9 10 10 11 13 12 14 13 15 13 14 15 15 15 12 10 10 11 10 10 10 10 14 13 13 11 9 9 9 6 6 7 5 7 6 4
7 4 4 4 5 2 4 9 11 9 3 10 10 10 10 10 17 15 15 14 12 13 15 15 13 15 14 10 9 7 8 9 10 10 11 14 12 14 11 8 9 10 8 7 6 8 3 4 6
6 3 3 3 3 5 8 8 11 10 8 11 11 12 11 13 17 8 9 11 11 9 10 14 15 15 12 8 10 9 11 9 8 10 13 15 14 14 13 9 10 10 10 10 10 7 9 3 6
2 2 4 4 1 3 5 12 11 8 11 14 12 11 13 9 8 11 11 9 11 16 16 14 15 15 15 12 10 8 9 4 7 8 11 14 15 15 14 12 11 13 9 10 11 11 7 4 8
4 6 5 6 2 3 4 10 6 7 6 7 10 11 9 11 11 10 9 10 9 11 13 14 17 17 16 15 5 4 4 3 3 6 8 11 14 14 14 15 12 13 12 11 14 14 13 9 10
4 5 3 3 3 4 2 9 5 6 10 7 13 11 9 9 7 7 9 8 9 12 8 11 12 13 13 12 11 13 11 10 7 7 5 4 11 14 14 13 13 13 11 12 13 13 13 7 10
6 3 2 2 3 2 2 2 9 3 6 14 10 10 9 9 7 7 8 9 8 5 8 7 8 9 8 13 13 11 11 5 3 3 7 5 4 4 10 12 13 13 11 12 14 12 15 11 11
8 6 8 5 3 5 9 9 6 5 7 5 3 3 2 1 2 4 1 3 3 1 4 7 8 7 8 11 9 12 13 7 5 4 5 6 5 4 4 6 10 11 12 14 13 15 16 15 12
5 8 2 4 3 8 2 1 8 7 9 7 4 6 4 3 4 6 5 4 5 3 1 4 6 6 7 8 8 9 9 10 10 9 7 6 6 5 9 7 6 9 11 12 12 15 16 15 14
9 10 9 9 5 5 0 9 7 7 5 9 4 4 6 6 5 6 5 3 2 3 3 3 5 5 7 8 7 6 7 6 6 8 6 7 7 7 8 10 10 11 10 11 12 10 12 15 13
7 7 6 7 3 4 6 7 11 6 9 5 6 5 6 5 6 5 6 3 2 1 2 2 3 2 3 5 5 7 7 7 9 9 7 6 6 5 7 9 11 12 10 11 11 10 13 12 13
7 8 5 3 3 5 5 5 7 2 7 6 9 5 4 5 6 3 4 3 2 1 2 1 1 4 4 5 5 6 7 7 6 6 8 7 7 7 7 9 10 10 10 10 10 10 10 11 9
3 3 2 6 7 7 2 8 9 11 4 8 4 3 7 7 8 4 4 4 4 3 2 2 2 3 4 5 5 6 6 6 6 6 6 6 6 7 8 9 10 10 10 10 10 11 10 12 11
3 10 10 7 6 4 4 10 1 6 8 6 7 6 5 5 4 3 5 4 3 1 2 6 4 5 6 5 5 6 6 5 6 7 7 6 7 6 8 7 8 8 9 9 11 12 10 12 12
Wind_Direction
313 325 74 42 56 64 263 146 152 116 59 319 53 110 128 98 134 197 156 162 136 147 154 147 143 122 115 113 116 115 110 105 103 100 98 90 93 105 106 100 94 94 93 96 98 93 82 90 99
323 34 46 85 85 82 276 235 137 198 175 147 96 93 52 102 114 106 127 174 147 147 149 146 139 127 128 123 119 118 112 109 104 103 102 98 97 111 107 101 96 96 97 98 101 91 84 87 98
352 47 86 95 116 149 177 202 158 161 161 111 84 61 133 159 71 149 168 146 141 145 148 148 140 138 135 129 123 116 111 111 111 110 113 107 100 113 108 101 99 100 99 102 103 90 85 102 99
62 12 36 83 115 253 172 184 166 140 64 60 115 72 30 220 158 185 142 140 137 147 146 149 147 139 135 131 127 126 124 122 119 121 120 113 103 103 101 101 102 103 102 104 100 84 85 103 99
36 60 58 78 23 343 75 186 159 131 149 123 123 176 67 339 34 134 139 145 145 146 143 153 150 144 141 139 138 135 132 127 126 124 123 119 112 107 106 110 109 107 103 104 95 84 89 101 99
40 87 56 81 313 77 217 192 153 120 170 156 76 108 189 310 138 152 146 150 151 146 152 155 149 147 147 145 142 139 137 135 131 131 131 127 124 116 118 116 114 109 109 107 99 83 93 97 95
113 87 178 156 190 162 208 164 130 156 154 212 154 118 282 293 195 143 146 144 148 148 149 153 156 156 152 147 150 149 145 140 140 140 135 128 124 121 122 121 119 117 115 113 97 93 96 98 95
105 94 145 152 171 205 218 145 129 142 215 105 149 171 196 225 197 134 136 146 149 150 154 155 159 160 157 158 156 153 152 143 147 137 127 120 110 115 117 116 124 122 119 114 103 104 99 98 91
102 69 176 206 161 167 196 149 70 134 118 75 24 153 210 156 157 129 139 144 167 163 162 162 160 161 155 154 163 153 151 146 140 133 126 112 115 118 115 128 126 126 126 118 109 106 101 89 82
89 117 200 237 158 166 182 203 151 120 116 164 25 39 114 137 161 169 169 181 179 169 171 163 164 163 157 164 159 152 148 148 141 137 140 129 132 133 128 123 125 129 126 126 106 106 97 82 70
144 169 203 174 147 125 158 225 241 125 223 207 196 183 166 162 176 186 191 184 189 176 171 173 170 166 165 168 166 161 153 147 144 150 149 141 130 129 123 120 115 128 133 112 94 95 85 92 91
118 247 172 193 155 116 170 199 215 187 221 194 206 171 168 176 186 192 202 192 179 182 183 180 172 169 175 171 177 171 165 164 164 172 157 145 133 136 141 143 144 140 135 122 114 103 103 93 91
132 208 110 154 148 138 165 237 228 247 241 247 123 165 183 187 197 204 205 200 184 189 190 188 173 180 178 175 180 178 174 172 175 173 171 157 157 154 144 149 156 145 140 133 124 120 113 101 96
153 156 132 193 205 228 212 303 20 268 242 227 182 197 195 196 202 192 195 210 196 197 195 188 184 183 176 174 176 179 180 175 175 177 180 170 167 161 160 162 171 160 154 141 134 138 130 123 119
110 88 341 202 192 211 125 297 231 250 327 261 204 213 214 221 203 209 206 208 203 201 196 193 190 184 180 180 175 179 181 174 181 184 179 177 171 171 169 170 187 181 158 152 136 123 115 119 112
90 56 100 279 144 174 114 269 279 320 219 253 265 242 242 233 221 221 213 211 205 193 191 193 194 189 188 185 179 177 183 184 185 187 184 182 179 177 175 179 183 185 171 159 146 141 110 114 121
9 191 195 306 202 138 155 256 256 101 82 293 261 258 231 245 245 235 224 215 203 204 197 196 194 191 191 186 182 180 183 188 190 188 190 186 185 183 179 182 181 161 169 163 151 148 146 141 106
193 197 227 224 217 183 174 253 273 280 271 247 264 259 252 242 238 230 220 218 212 205 205 199 193 195 188 180 182 181 184 192 192 194 192 189 189 185 183 183 177 169 163 158 156 152 117 124 133
147 148 186 237 213 150 231 251 264 280 294 276 246 249 248 239 252 255 238 218 211 209 198 200 191 193 180 181 182 188 197 195 194 198 196 190 193 189 186 183 174 173 173 172 160 133 138 125 130
175 236 240 294 336 150 280 265 254 254 254 246 259 254 243 247 250 250 244 225 202 211 206 199 198 188 191 191 195 196 189 186 194 196 201 196 191 189 186 182 185 185 171 163 167 161 155 125 185
210 199 219 217 39 302 334 286 262 281 257 268 253 250 253 236 249 256 251 234 221 211 200 196 196 192 194 194 145 88 82 76 139 197 203 203 193 188 193 183 184 187 181 182 179 175 180 171 196
204 202 182 190 85 244 59 286 289 259 278 288 282 266 265 264 255 255 258 254 226 229 201 199 195 188 191 172 175 187 197 200 206 195 187 181 196 190 189 189 184 186 190 182 195 187 182 171 192
219 169 156 91 126 51 292 326 276 296 278 262 272 278 274 269 247 249 253 252 255 228 206 194 167 171 171 180 185 189 205 199 126 137 164 176 196 199 189 181 183 188 192 195 182 200 191 190 174
145 78 41 49 59 284 196 182 271 216 218 281 282 345 14 38 180 198 165 19 5 342 176 165 166 177 165 180 181 191 201 163 158 164 185 189 195 195 211 184 188 196 197 190 190 193 211 192 198
86 82 343 337 358 236 67 251 239 257 243 223 304 14 358 275 320 318 308 355 4 11 171 164 166 175 169 174 180 186 189 181 190 186 190 176 190 206 207 197 203 204 203 203 198 196 196 208 203
185 160 168 196 203 259 86 241 248 258 306 257 346 22 343 342 296 284 287 345 346 4 31 138 160 175 183 188 194 193 183 191 197 194 188 198 197 202 199 211 218 215 204 205 197 200 211 204 210
196 210 168 104 23 51 235 294 307 317 276 301 31 68 18 352 342 300 302 4 334 48 277 226 191 232 201 202 198 201 194 190 203 205 195 192 195 189 188 200 213 222 214 208 197 203 205 208 207
161 162 79 7 150 258 261 261 226 311 265 22 30 31 11 339 351 345 13 343 331 290 242 197 204 225 222 221 216 217 209 208 208 203 208 194 190 185 184 202 211 216 216 215 206 211 211 207 212
143 180 126 129 155 187 256 258 215 226 133 136 169 31 22 1 338 345 357 345 347 346 350 315 252 228 237 231 233 227 225 217 212 218 223 207 188 191 194 198 207 210 210 210 212 216 206 209 211
222 204 175 180 222 238 165 254 69 135 123 107 59 31 6 340 342 321 312 318 303 265 282 259 247 242 240 240 236 242 243 218 225 227 221 213 211 201 201 192 197 205 215 213 218 223 215 209 211